Location: Ponte Samoggia
(44.5667°N, 11.1333°E)
Time: 16:03:57
(UTC+00:00)

Cosmos 2341 Rocket - Pass Details

Date: 26 May 2022
Orbit: 969 x 1004 km, 82.9° (Epoch: 06 July)

Event Time Altitude Azimuth Distance (km) Brightness Sun altitude
Rises 02:38:27 0° 348° (NNW) 3,735 7.5 -9.3°
Reaches altitude 10° 02:41:01 10° 344° (NNW) 2,784 6.7 -8.9°
Maximum altitude 02:47:15 56° 268° (W) 1,180 4.2 -8.1°
Drops below altitude 10° 02:53:26 10° 192° (SSW) 2,768 5.9 -7.3°
Sets 02:56:00 0° 188° (S) 3,712 6.6 -6.9°
